Regional Weather Roundup
Issued by NWS Austin/San Antonio, TX

Home | Current Version | Previous Version | Text Only | Print | Product List | Glossary On
Versions: 1 2 3 4 5 6 7 8 9 10 11 12 13 14 15 16 17 18 19 20 21 22 23 24 25 26 27 28 29 30 31 32 33 34 35 36 37 38 39 40 41 42 43 44 45 46 47 48 49 50
000
ASUS44 KEWX 191801
RWREWX
SOUTH TEXAS REGIONAL WEATHER ROUNDUP
NATIONAL WEATHER SERVICE AUSTIN/SAN ANTONIO TX
100 PM CDT THU OCT 19 2017

NOTE: "FAIR" INDICATED FEW OR NO CLOUDS BELOW 12,000 FEET WITH NO
SIGNIFICANT WEATHER AND/OR OBSTRUCTIONS TO VISIBILITY.

* - THESE STATIONS ARE NOT NWS OR FAA STATIONS...AND ARE NOT SUBJECT
    TO NWS AND FAA QUALITY CONTROL.

TXZ171-172-183>190-191900-
TEXAS HILL COUNTRY AND EDWARDS PLATEAU

CITY           SKY/WX    TMP DP  RH WIND       PRES   REMARKS
JUNCTION       FAIR      77  54  44 S14       30.12F
6HR MIN TEMP:  45; 6HR MAX TEMP:  78;

*LLANO         FAIR      77  59  53 SE5       30.17F
BURNET         FAIR      76  60  57 S7        30.17F
6HR MIN TEMP:  56; 6HR MAX TEMP:  77;

*HORSESHOE BAY FAIR      78  60  54 S8G17     30.14F
6HR MIN TEMP:  50; 6HR MAX TEMP:  78;

*KERRVILLE     PTSUNNY   76  63  63 S14       30.15F
6HR MIN TEMP:  52; 6HR MAX TEMP:  76;

*FREDERICKSBRG PTSUNNY   73  57  58 S7G16     30.16F
*ROCKSPRINGS   NOT AVBL
*BOERNE STAGE  PTSUNNY   72  59  64 S7        30.15F
*CASTROVILLE   PTSUNNY   79  62  55 SE5       30.14F
HONDO          PTSUNNY   79  63  57 S10       30.12F
6HR MIN TEMP:  59; 6HR MAX TEMP:  81;

*UVALDE        FAIR      75  62  64 S10       30.11F
6HR MIN TEMP:  57; 6HR MAX TEMP:  75;

DEL RIO        FAIR      72  63  73 SE13      30.09F
6HR MIN TEMP:  58; 6HR MAX TEMP:  73;

LAUGHLIN AFB   PTSUNNY   72  63  72 SE12      30.09F
6HR MIN TEMP:  56; 6HR MAX TEMP:  73;

CARRIZO SPRGS  FAIR      79  63  57 S8        30.08F
*EAGLE PASS    NOT AVBL
$$

TXZ173-191>194-202-209-217>225-228-191900-
CENTRAL AND SOUTH CENTRAL TEXAS

CITY           SKY/WX    TMP DP  RH WIND       PRES   REMARKS
GEORGETOWN     FAIR      77  61  57 SE6       30.16F
6HR MIN TEMP:  51; 6HR MAX TEMP:  77;

AUSTIN/BERGSTM PTSUNNY   78  63  59 VRB5      30.13F
6HR MIN TEMP:  52; 6HR MAX TEMP:  79;

AUSTIN/MABRY   PTSUNNY   78  63  59 VRB3      30.15F
6HR MIN TEMP:  57; 6HR MAX TEMP:  80;

*AUSTIN/EXEC   FAIR      77  61  57 CALM      30.14F
*LAGO VISTA    PTSUNNY   77  62  59 SE9G16    30.16F
6HR MIN TEMP:  61; 6HR MAX TEMP:  77;

SAN MARCOS     PTSUNNY   80  63  55 VRB6      30.14F
NEW BRAUNFELS  FAIR      80  65  59 MISG      30.12F
6HR MIN TEMP:  60; 6HR MAX TEMP:  80;

RANDOLPH AFB   PTSUNNY   78  65  64 CALM      30.12F
6HR MIN TEMP:  56; 6HR MAX TEMP:  78;

PT SAN ANTONIO NOT AVBL
SAN ANTONIO    PTSUNNY   78  63  59 SE13      30.13F
6HR MIN TEMP:  58; 6HR MAX TEMP:  79;

STINSON FIELD  LGT RAIN  81  65  58 SE7       30.10F
6HR MIN TEMP:  61; 6HR MAX TEMP:  82; 6HR PCP: TRACE;

*LA GRANGE     PTSUNNY   82  65  56 SE6       30.12S
*GIDDINGS      FAIR      80  60  51 SE7       30.14F
6HR MIN TEMP:  52; 6HR MAX TEMP:  80;

*GONZALES      FAIR      84  67  56 SE5       30.11F
6HR MIN TEMP:  57; 6HR MAX TEMP:  84;

$$

TXZ163>164-176>182-195>201-210>213-226-227-235-191900-
SOUTHEAST TEXAS

CITY           SKY/WX    TMP DP  RH WIND       PRES   REMARKS
COLLEGE STN    FAIR      81  60  48 S6        30.13F
6HR MIN TEMP:  58; 6HR MAX TEMP:  83;

*BRYAN         FAIR      80  60  50 S5        30.15F
6HR MIN TEMP:  53; 6HR MAX TEMP:  81;

*CALDWELL      FAIR      80  62  54 CALM      30.14F
6HR MIN TEMP:  56; 6HR MAX TEMP:  81;

*CROCKETT        N/A     77  61  57 SE7       30.20F
*BRENHAM       FAIR      82  62  50 E6        30.13F
6HR MIN TEMP:  54; 6HR MAX TEMP:  82;

HUNTSVILLE     FAIR      81  60  48 VRB3      30.15F
6HR MIN TEMP:  57; 6HR MAX TEMP:  81;

CONROE         FAIR      79  63  57 VRB3      30.14F
6HR MIN TEMP:  59; 6HR MAX TEMP:  80;

HOUSTON BUSH   PTSUNNY   82  64  54 E9        30.12F
6HR MIN TEMP:  64; 6HR MAX TEMP:  83;

HOUSTON HOBBY  FAIR      83  64  52 E9        30.12F
6HR MIN TEMP:  67; 6HR MAX TEMP:  84;

*HOUSTON SW AP FAIR      82  66  58 E10G16    30.12F
6HR MIN TEMP:  61; 6HR MAX TEMP:  83;

PEARLAND       PTSUNNY   84  64  50 E14       30.14F
6HR MIN TEMP:  66; 6HR MAX TEMP:  84;

HOUSTON HOOKS  FAIR      82  62  50 VRB6      30.13F
6HR MIN TEMP:  64; 6HR MAX TEMP:  82;

ELLINGTON FLD  NOT AVBL
SUGAR LAND     FAIR      84  62  47 E8        30.11F
6HR MIN TEMP:  63; 6HR MAX TEMP:  85;

*HOUSTON EXEC  FAIR      82  63  51 E9        30.13F
*CLEVELAND MUN FAIR      80  61  51 E3        30.15F
6HR MIN TEMP:  58; 6HR MAX TEMP:  80;

*WHARTON       FAIR      83  59  43 E7        30.11F
6HR MIN TEMP:  58; 6HR MAX TEMP:  83;

*COLUMBUS      FAIR      80  61  52 SW7       30.13F
6HR MIN TEMP:  54; 6HR MAX TEMP:  82;

*EAGLE LAKE    FAIR      83  64  51 E6        30.11F
6HR MIN TEMP:  58; 6HR MAX TEMP:  85;

$$

TXZ214>216-236>238-191900-
THE UPPER TEXAS COAST

CITY           SKY/WX    TMP DP  RH WIND       PRES   REMARKS
*ORANGE        FAIR      79  60  51 E10       30.17F
6HR MIN TEMP:  63; 6HR MAX TEMP:  79;

PORT ARTHUR    FAIR      80  59  48 E9G18     30.14F
6HR MIN TEMP:  64; 6HR MAX TEMP:  80;

GALVESTON      FAIR      83  67  58 E16G22    30.13F
6HR MIN TEMP:  77; 6HR MAX TEMP:  84;

ANGLETON       FAIR      83  63  50 E13       30.11F
6HR MIN TEMP:  62; 6HR MAX TEMP:  84;

*BAY CITY      PTSUNNY   84  65  53 E8        30.10F
PALACIOS       CLOUDY    80  66  62 E13       30.09F
6HR MIN TEMP:  58; 6HR MAX TEMP:  83;

$$

TXZ229>234-239>247-191900-
TEXAS COASTAL BEND AND RIO GRANDE PLAINS

CITY           SKY/WX    TMP DP  RH WIND       PRES   REMARKS
VICTORIA       PTSUNNY   85  63  47 VRB5      30.10F
6HR MIN TEMP:  58; 6HR MAX TEMP:  85;

*BEEVILLE      CLOUDY    84  60  44 E7        30.09F
ROCKPORT       CLOUDY    80  65  59 NE13      30.08F
6HR MIN TEMP:  66; 6HR MAX TEMP:  83;

*PORT ARANSAS  NOT AVBL
*PORT LAVACA   CLOUDY    81  67  63 E13       30.10F
6HR MIN TEMP:  60; 6HR MAX TEMP:  82;

*INGLESIDE     NOT AVBL
CORPUS CHRISTI CLOUDY    82  69  64 E13       30.07F
6HR MIN TEMP:  65; 6HR MAX TEMP:  83;

CORPUS NAS     NOT AVBL
*ROBSTOWN      CLOUDY    81  68  64 E8        30.08F
ALICE          CLOUDY    81  66  60 E8        30.07F
6HR MIN TEMP:  60; 6HR MAX TEMP:  82;

KINGSVILLE NAS NOT AVBL
COTULLA        PTSUNNY   80  63  55 S6        30.08F
6HR MIN TEMP:  59; 6HR MAX TEMP:  81;

*FAITH RANCH   MOSUNNY   79  63  57 SE7       30.08F
LAREDO         FAIR      82  64  54 SE13      30.07F
6HR MIN TEMP:  62; 6HR MAX TEMP:  82;

$$

TXZ248>255-191900-
DEEP SOUTH TEXAS

CITY           SKY/WX    TMP DP  RH WIND       PRES   REMARKS
BROWNSVILLE    PTSUNNY   85  69  58 CALM      30.04F
6HR MIN TEMP:  67; 6HR MAX TEMP:  87;

PORT ISABEL    CLOUDY    84  71  65 NE9       30.04F
6HR MIN TEMP:  67; 6HR MAX TEMP:  85;

*SOUTH PADRE   NOT AVBL
HARLINGEN      CLOUDY    85  70  60 VRB6      30.04F
6HR MIN TEMP:  63; 6HR MAX TEMP:  86;

*HEBBRONVILLE  FAIR      81  62  53 SE7       30.09F
MCALLEN        FAIR      86  67  52 E9        30.04F
6HR MIN TEMP:  67; 6HR MAX TEMP:  87;

*WESLACO       FAIR      84  66  54 E8        30.04F
6HR MIN T



USA.gov is the U.S. government's official web portal to all federal, state and local government web resources and services.